BEL4CQ EVRA-EBBR

Flight info

Callsign BEL4CQ
Flight time 2h 12m
Altitude 36000
Route VALED DCT ADAXA DCT NINTA DCT DETNI DCT PEROM DCT BERIM DCT NIE DCT ABAMI Z717 NEREL/N0405F240 T855 AGENI/N0369F180 T855 BATTY
Aircraft A320/M-SDE3FGHIRWY/LB1

Departure

Time 2026-05-04 13:31
Airport Riga International Airport (EVRA)

Arrival

Time 2026-05-04 15:44
Airport Brussels Airport (EBBR)
Time Latitude Longitude Altitude Speed Heading
2026-05-04 13:12 56.92292 23.97684 46 ft 0 kts 185°
2026-05-04 13:23 56.92303 23.97686 46 ft 4 kts 183°
2026-05-04 13:23 56.92329 23.97688 44 ft 4 kts 187°
2026-05-04 13:23 56.92350 23.97700 43 ft 4 kts 249°
2026-05-04 13:24 56.92352 23.97708 42 ft 0 kts 275°
2026-05-04 13:26 56.92353 23.97691 44 ft 3 kts 275°
2026-05-04 13:26 56.92355 23.97640 46 ft 5 kts 274°
2026-05-04 13:26 56.92360 23.97554 46 ft 8 kts 283°
2026-05-04 13:26 56.92412 23.97519 46 ft 10 kts
2026-05-04 13:27 56.92495 23.97538 44 ft 14 kts
2026-05-04 13:27 56.92602 23.97555 46 ft 15 kts
2026-05-04 13:27 56.92711 23.97572 46 ft 16 kts
2026-05-04 13:27 56.92824 23.97590 46 ft 16 kts
2026-05-04 13:28 56.92939 23.97610 46 ft 16 kts
2026-05-04 13:28 56.93047 23.97629 43 ft 15 kts
2026-05-04 13:28 56.93144 23.97638 45 ft 13 kts 354°
2026-05-04 13:28 56.93226 23.97588 46 ft 12 kts 346°
2026-05-04 13:29 56.93303 23.97580 46 ft 10 kts
2026-05-04 13:29 56.93370 23.97591 46 ft 9 kts
2026-05-04 13:29 56.93428 23.97598 46 ft 7 kts 358°
2026-05-04 13:29 56.93468 23.97560 46 ft 6 kts 320°
2026-05-04 13:30 56.93492 23.97504 46 ft 6 kts 294°
2026-05-04 13:30 56.93498 23.97407 46 ft 9 kts 274°
2026-05-04 13:30 56.93494 23.97305 45 ft 3 kts 217°
2026-05-04 13:30 56.93476 23.97305 45 ft 4 kts 186°
2026-05-04 13:31 56.93324 23.97279 46 ft 53 kts 185°
2026-05-04 13:31 56.92745 23.97184 45 ft 112 kts 185°
2026-05-04 13:31 56.91803 23.97036 89 ft 154 kts 191°
2026-05-04 13:31 56.90759 23.96875 756 ft 150 kts 190°
2026-05-04 13:32 56.89709 23.96708 1429 ft 152 kts 192°
2026-05-04 13:32 56.88648 23.96537 2081 ft 154 kts 193°
2026-05-04 13:32 56.87576 23.96352 2693 ft 155 kts 195°
2026-05-04 13:32 56.86503 23.96166 3319 ft 157 kts 197°
2026-05-04 13:33 56.85399 23.95756 3648 ft 167 kts 213°
2026-05-04 13:33 56.84411 23.94506 3956 ft 182 kts 232°
2026-05-04 13:33 56.83602 23.92569 4372 ft 203 kts 236°
2026-05-04 13:33 56.82704 23.90422 4895 ft 222 kts 235°
2026-05-04 13:34 56.81728 23.88156 5686 ft 230 kts 234°
2026-05-04 13:34 56.80726 23.85854 6584 ft 234 kts 233°
2026-05-04 13:34 56.79709 23.83516 7436 ft 237 kts 233°
2026-05-04 13:34 56.78675 23.81135 8272 ft 241 kts 233°
2026-05-04 13:35 56.77628 23.78714 9091 ft 245 kts 233°
2026-05-04 13:35 56.75284 23.74035 10308 ft 267 kts 229°
2026-05-04 13:35 56.73941 23.71489 10505 ft 290 kts 229°
2026-05-04 13:36 56.72498 23.68761 10915 ft 304 kts 229°
2026-05-04 13:36 56.70994 23.65927 11602 ft 310 kts 229°
2026-05-04 13:36 56.69507 23.63132 12316 ft 313 kts 228°
2026-05-04 13:36 56.67982 23.60270 13050 ft 317 kts 228°
2026-05-04 13:37 56.66438 23.57378 13763 ft 320 kts 228°
2026-05-04 13:37 56.64876 23.54455 14400 ft 324 kts 228°
2026-05-04 13:37 56.63302 23.51508 15041 ft 327 kts 229°
2026-05-04 13:37 56.62251 23.49540 15456 ft 329 kts 229°
2026-05-04 13:38 56.60150 23.45466 16276 ft 332 kts 231°
2026-05-04 13:38 56.58728 23.42163 16904 ft 333 kts 241°
2026-05-04 13:38 56.57843 23.38286 17503 ft 335 kts 255°
2026-05-04 13:38 56.57549 23.34076 18106 ft 340 kts 268°
2026-05-04 13:39 56.57859 23.29789 18641 ft 348 kts 282°
2026-05-04 13:39 56.58685 23.25628 19194 ft 353 kts 287°
2026-05-04 13:39 56.59573 23.21461 19746 ft 355 kts 286°
2026-05-04 13:39 56.60461 23.17268 20294 ft 357 kts 285°
2026-05-04 13:40 56.61268 23.12999 20841 ft 359 kts 283°
2026-05-04 13:40 56.62000 23.08655 21389 ft 361 kts 282°
2026-05-04 13:40 56.62695 23.04267 21913 ft 363 kts 281°
2026-05-04 13:40 56.63383 22.99836 22433 ft 365 kts 281°
2026-05-04 13:41 56.64078 22.95380 22940 ft 368 kts 281°
2026-05-04 13:41 56.64789 22.90893 23448 ft 371 kts 281°
2026-05-04 13:41 56.65516 22.86375 23876 ft 374 kts 281°
2026-05-04 13:42 56.66995 22.77265 24663 ft 378 kts 281°
2026-05-04 13:42 56.67738 22.72666 25036 ft 380 kts 281°
2026-05-04 13:42 56.68482 22.68046 25402 ft 382 kts 281°
2026-05-04 13:42 56.69227 22.63397 25844 ft 383 kts 281°
2026-05-04 13:43 56.69974 22.58742 26238 ft 384 kts 281°
2026-05-04 13:43 56.70721 22.54068 26601 ft 386 kts 281°
2026-05-04 13:43 56.71365 22.49334 26938 ft 384 kts 274°
2026-05-04 13:43 56.71570 22.44520 27272 ft 381 kts 265°
2026-05-04 13:44 56.71311 22.39729 27608 ft 380 kts 257°
2026-05-04 13:44 56.70809 22.35000 27940 ft 382 kts 257°
2026-05-04 13:44 56.70307 22.30247 28262 ft 384 kts 257°
2026-05-04 13:44 56.69806 22.25462 28575 ft 385 kts 257°
2026-05-04 13:45 56.69309 22.20661 28879 ft 387 kts 257°
2026-05-04 13:45 56.68809 22.15838 29175 ft 389 kts 257°
2026-05-04 13:45 56.68299 22.10990 29462 ft 391 kts 257°
2026-05-04 13:45 56.67784 22.06132 29737 ft 392 kts 257°
2026-05-04 13:46 56.67263 22.01248 30018 ft 394 kts 257°
2026-05-04 13:46 56.66740 21.96361 30256 ft 394 kts 257°
2026-05-04 13:46 56.66213 21.91462 30472 ft 395 kts 257°
2026-05-04 13:46 56.65684 21.86558 30752 ft 395 kts 257°
2026-05-04 13:47 56.65163 21.81726 31023 ft 395 kts 257°
2026-05-04 13:47 56.64625 21.76769 31296 ft 395 kts 257°
2026-05-04 13:47 56.64101 21.71978 31559 ft 395 kts 257°
2026-05-04 13:47 56.63559 21.67049 31824 ft 395 kts 257°
2026-05-04 13:48 56.63020 21.62163 32099 ft 395 kts 257°
2026-05-04 13:48 56.62480 21.57275 32369 ft 395 kts 257°
2026-05-04 13:48 56.61939 21.52392 32651 ft 395 kts 257°
2026-05-04 13:48 56.61397 21.47502 32921 ft 395 kts 257°
2026-05-04 13:49 56.60854 21.42617 33141 ft 396 kts 257°
2026-05-04 13:49 56.60309 21.37717 33361 ft 397 kts 257°
2026-05-04 13:49 56.59761 21.32806 33672 ft 397 kts 257°
2026-05-04 13:49 56.59211 21.27914 33993 ft 395 kts 257°
2026-05-04 13:50 56.58658 21.23040 34254 ft 394 kts 257°
2026-05-04 13:50 56.58104 21.18177 34476 ft 394 kts 257°
2026-05-04 13:50 56.57547 21.13304 34683 ft 394 kts 257°
2026-05-04 13:50 56.56988 21.08435 34895 ft 395 kts 257°
2026-05-04 13:51 56.56427 21.03559 35087 ft 395 kts 257°
2026-05-04 13:51 56.55864 20.98679 35271 ft 396 kts 257°
2026-05-04 13:51 56.55296 20.93787 35447 ft 396 kts 257°
2026-05-04 13:51 56.54725 20.88897 35619 ft 397 kts 257°
2026-05-04 13:52 56.53574 20.79100 35854 ft 398 kts 257°
2026-05-04 13:52 56.52996 20.74192 35856 ft 398 kts 257°
2026-05-04 13:53 56.51836 20.64372 35895 ft 398 kts 257°
2026-05-04 13:53 56.50677 20.54633 35848 ft 394 kts 257°
2026-05-04 13:54 56.48936 20.40125 35841 ft 392 kts 257°
2026-05-04 13:55 56.47183 20.25663 35849 ft 392 kts 257°
2026-05-04 13:55 56.45413 20.11231 35846 ft 392 kts 257°
2026-05-04 13:56 56.44232 20.01677 35846 ft 392 kts 257°
2026-05-04 13:57 56.42435 19.87283 35868 ft 391 kts 257°
2026-05-04 13:58 56.40024 19.68194 35859 ft 389 kts 256°
2026-05-04 13:58 56.38195 19.53934 35852 ft 388 kts 256°
2026-05-04 13:59 56.36975 19.44446 35835 ft 388 kts 256°
2026-05-04 14:00 56.35127 19.30224 35840 ft 388 kts 256°
2026-05-04 14:00 56.33269 19.16038 35855 ft 387 kts 256°
2026-05-04 14:01 56.32023 19.06601 35854 ft 387 kts 256°
2026-05-04 14:02 56.30136 18.92461 35853 ft 387 kts 256°
2026-05-04 14:02 56.29129 18.84613 35850 ft 388 kts 257°
2026-05-04 14:03 56.28091 18.75090 35851 ft 388 kts 258°
2026-05-04 14:03 56.27085 18.65560 35857 ft 388 kts 258°
2026-05-04 14:04 56.25500 18.51299 35835 ft 388 kts 257°
2026-05-04 14:04 56.24414 18.41807 35841 ft 387 kts 257°
2026-05-04 14:05 56.22525 18.27718 35843 ft 387 kts 248°
2026-05-04 14:06 56.20007 18.19158 35843 ft 388 kts 243°
2026-05-04 14:06 56.17396 18.10688 35843 ft 388 kts 243°
2026-05-04 14:07 56.14778 18.02227 35844 ft 388 kts 243°
2026-05-04 14:07 56.12156 17.93767 35844 ft 388 kts 242°
2026-05-04 14:08 56.09530 17.85326 35858 ft 388 kts 242°
2026-05-04 14:08 56.06910 17.76950 35833 ft 388 kts 242°
2026-05-04 14:09 56.02872 17.64389 35842 ft 389 kts 240°
2026-05-04 14:10 55.98443 17.52239 35852 ft 389 kts 238°
2026-05-04 14:10 55.95474 17.44151 35856 ft 389 kts 239°
2026-05-04 14:11 55.92535 17.36042 35867 ft 389 kts 239°
2026-05-04 14:11 55.88132 17.23864 35851 ft 390 kts 239°
2026-05-04 14:12 55.85185 17.15765 35869 ft 390 kts 239°
2026-05-04 14:12 55.82235 17.07719 35442 ft 385 kts 237°
2026-05-04 14:13 55.80780 17.03762 35609 ft 380 kts 237°
2026-05-04 14:13 55.79341 16.99848 35775 ft 376 kts 237°
2026-05-04 14:13 55.77920 16.95985 35939 ft 371 kts 237°
2026-05-04 14:14 55.75106 16.88352 36009 ft 369 kts 237°
2026-05-04 14:14 55.70895 16.76958 36615 ft 374 kts 238°
2026-05-04 14:15 55.67961 16.69063 36047 ft 388 kts 238°
2026-05-04 14:15 55.64978 16.61076 35880 ft 389 kts 238°
2026-05-04 14:16 55.60493 16.49106 35885 ft 389 kts 238°
2026-05-04 14:17 55.55998 16.37144 35885 ft 389 kts 238°
2026-05-04 14:18 55.51489 16.25210 35896 ft 389 kts 238°
2026-05-04 14:19 55.45451 16.09335 35899 ft 390 kts 237°
2026-05-04 14:19 55.42425 16.01421 35905 ft 390 kts 237°
2026-05-04 14:20 55.39395 15.93511 35908 ft 390 kts 237°
2026-05-04 14:20 55.36363 15.85618 35915 ft 390 kts 237°
2026-05-04 14:21 55.31800 15.73805 35915 ft 389 kts 237°
2026-05-04 14:21 55.28753 15.65948 35882 ft 389 kts 237°
2026-05-04 14:22 55.25704 15.58104 35907 ft 389 kts 237°
2026-05-04 14:22 55.22647 15.50256 35905 ft 390 kts 237°
2026-05-04 14:23 55.18051 15.38508 35904 ft 390 kts 237°
2026-05-04 14:24 55.14975 15.30683 35907 ft 390 kts 237°
2026-05-04 14:24 55.11896 15.22877 35916 ft 390 kts 237°
2026-05-04 14:25 55.08803 15.15083 35915 ft 390 kts 237°
2026-05-04 14:25 55.04161 15.03393 35933 ft 391 kts 237°
2026-05-04 14:26 55.01059 14.95609 35947 ft 391 kts 237°
2026-05-04 14:26 54.97952 14.87847 35946 ft 391 kts 237°
2026-05-04 14:27 54.94838 14.80095 35940 ft 391 kts 237°
2026-05-04 14:27 54.91720 14.72346 35937 ft 391 kts 237°
2026-05-04 14:28 54.88597 14.64587 35920 ft 392 kts 236°
2026-05-04 14:28 54.85458 14.56850 35924 ft 392 kts 236°
2026-05-04 14:29 54.79156 14.41382 35935 ft 393 kts 236°
2026-05-04 14:30 54.76003 14.33652 35929 ft 393 kts 236°
2026-05-04 14:31 54.71256 14.22065 35952 ft 394 kts 236°
2026-05-04 14:32 54.64891 14.06650 35931 ft 395 kts 236°
2026-05-04 14:32 54.61696 13.98930 35938 ft 395 kts 236°
2026-05-04 14:33 54.58495 13.91213 35941 ft 395 kts 236°
2026-05-04 14:33 54.55280 13.83527 35949 ft 395 kts 236°
2026-05-04 14:34 54.52088 13.75892 35949 ft 396 kts 236°
2026-05-04 14:34 54.48869 13.68204 35923 ft 396 kts 236°
2026-05-04 14:35 54.45637 13.60524 35929 ft 397 kts 236°
2026-05-04 14:35 54.42393 13.52854 35944 ft 397 kts 236°
2026-05-04 14:36 54.39148 13.45184 35958 ft 397 kts 235°
2026-05-04 14:36 54.35898 13.37521 35955 ft 397 kts 235°
2026-05-04 14:37 54.32639 13.29864 35959 ft 398 kts 235°
2026-05-04 14:37 54.29374 13.22222 35957 ft 398 kts 235°
2026-05-04 14:38 54.26105 13.14586 35945 ft 398 kts 235°
2026-05-04 14:38 54.22820 13.06962 35946 ft 398 kts 235°
2026-05-04 14:39 54.19537 12.99355 35957 ft 398 kts 235°
2026-05-04 14:39 54.16250 12.91764 35955 ft 398 kts 235°
2026-05-04 14:40 54.11316 12.80379 35955 ft 398 kts 235°
2026-05-04 14:40 54.08015 12.72810 35969 ft 398 kts 235°
2026-05-04 14:41 54.04707 12.65246 35946 ft 398 kts 235°
2026-05-04 14:42 53.98077 12.50138 35955 ft 399 kts 235°
2026-05-04 14:42 53.94749 12.42586 35962 ft 399 kts 234°
2026-05-04 14:43 53.91405 12.35047 35967 ft 400 kts 234°
2026-05-04 14:43 53.88082 12.27559 35971 ft 400 kts 234°
2026-05-04 14:44 53.84731 12.20027 35952 ft 401 kts 235°
2026-05-04 14:44 53.81369 12.12499 35938 ft 401 kts 234°
2026-05-04 14:45 53.78009 12.04984 35964 ft 401 kts 234°
2026-05-04 14:45 53.74638 11.97475 35959 ft 401 kts 234°
2026-05-04 14:46 53.71260 11.89990 35956 ft 401 kts 234°
2026-05-04 14:46 53.67872 11.82514 35954 ft 401 kts 234°
2026-05-04 14:47 53.64483 11.75038 35927 ft 401 kts 234°
2026-05-04 14:47 53.61086 11.67576 35935 ft 402 kts 234°
2026-05-04 14:48 53.57685 11.60116 35939 ft 402 kts 234°
2026-05-04 14:48 53.54285 11.52656 35947 ft 402 kts 234°
2026-05-04 14:49 53.51452 11.46464 35956 ft 402 kts 234°
2026-05-04 14:49 53.48034 11.39020 35960 ft 403 kts 234°
2026-05-04 14:50 53.44652 11.31711 35939 ft 403 kts 234°
2026-05-04 14:50 53.41216 11.24292 35960 ft 402 kts 234°
2026-05-04 14:51 53.37792 11.16882 35967 ft 402 kts 234°
2026-05-04 14:51 53.34359 11.09494 35968 ft 402 kts 234°
2026-05-04 14:52 53.30919 11.02131 35969 ft 401 kts 234°
2026-05-04 14:52 53.27479 10.94783 35968 ft 401 kts 233°
2026-05-04 14:53 53.24032 10.87450 35396 ft 401 kts 232°
2026-05-04 14:53 53.22317 10.83808 36017 ft 402 kts 233°
2026-05-04 14:53 53.20590 10.80146 35934 ft 400 kts 234°
2026-05-04 14:54 53.17162 10.72875 35955 ft 399 kts 233°
2026-05-04 14:54 53.13734 10.65615 35958 ft 399 kts 233°
2026-05-04 14:55 53.10302 10.58373 35957 ft 398 kts 233°
2026-05-04 14:55 53.06856 10.51150 35957 ft 398 kts 233°
2026-05-04 14:56 53.03410 10.43934 35961 ft 399 kts 233°
2026-05-04 14:56 52.99953 10.36731 35958 ft 399 kts 233°
2026-05-04 14:57 52.96493 10.29535 35975 ft 398 kts 233°
2026-05-04 14:57 52.93039 10.22350 35978 ft 399 kts 233°
2026-05-04 14:58 52.89571 10.15172 35982 ft 399 kts 233°
2026-05-04 14:58 52.86097 10.08004 35984 ft 400 kts 233°
2026-05-04 14:59 52.82617 10.00821 35956 ft 400 kts 233°
2026-05-04 15:00 52.77380 9.90080 35976 ft 400 kts 233°
2026-05-04 15:00 52.73891 9.82946 35979 ft 399 kts 232°
2026-05-04 15:01 52.68652 9.72297 35985 ft 398 kts 232°
2026-05-04 15:01 52.65160 9.65217 35983 ft 398 kts 232°
2026-05-04 15:02 52.61670 9.58151 35970 ft 398 kts 232°
2026-05-04 15:02 52.58182 9.51111 35978 ft 397 kts 232°
2026-05-04 15:03 52.54697 9.44088 35986 ft 396 kts 232°
2026-05-04 15:03 52.51216 9.37081 35975 ft 396 kts 232°
2026-05-04 15:04 52.47726 9.30092 35976 ft 396 kts 232°
2026-05-04 15:04 52.44234 9.23124 35979 ft 395 kts 232°
2026-05-04 15:05 52.40737 9.16165 35957 ft 396 kts 232°
2026-05-04 15:05 52.37237 9.09212 35965 ft 396 kts 232°
2026-05-04 15:06 52.33733 9.02273 35971 ft 396 kts 232°
2026-05-04 15:07 52.28463 8.91891 35991 ft 396 kts 231°
2026-05-04 15:07 52.24945 8.84973 35986 ft 396 kts 231°
2026-05-04 15:08 52.21453 8.78116 35981 ft 395 kts 231°
2026-05-04 15:08 52.17931 8.71227 35954 ft 396 kts 231°
2026-05-04 15:09 52.14402 8.64350 35955 ft 396 kts 231°
2026-05-04 15:09 52.10862 8.57473 35954 ft 396 kts 231°
2026-05-04 15:10 52.05552 8.47182 35957 ft 396 kts 231°
2026-05-04 15:11 52.00225 8.36885 35960 ft 397 kts 231°
2026-05-04 15:11 51.96668 8.30035 35961 ft 397 kts 230°
2026-05-04 15:12 51.93099 8.23188 35958 ft 398 kts 230°
2026-05-04 15:12 51.89513 8.16351 35958 ft 398 kts 230°
2026-05-04 15:13 51.85927 8.09507 35960 ft 399 kts 230°
2026-05-04 15:13 51.82341 8.02670 35961 ft 399 kts 230°
2026-05-04 15:14 51.78749 7.95842 35960 ft 399 kts 230°
2026-05-04 15:14 51.75150 7.89028 35951 ft 399 kts 230°
2026-05-04 15:15 51.71541 7.82217 35953 ft 399 kts 230°
2026-05-04 15:15 51.67927 7.75419 35965 ft 400 kts 230°
2026-05-04 15:16 51.62489 7.65218 35962 ft 400 kts 229°
2026-05-04 15:17 51.57035 7.55024 35964 ft 401 kts 229°
2026-05-04 15:17 51.51560 7.44843 35949 ft 402 kts 229°
2026-05-04 15:18 51.47907 7.38046 35952 ft 403 kts 229°
2026-05-04 15:19 51.42399 7.27858 35962 ft 403 kts 230°
2026-05-04 15:19 51.37289 7.17143 35982 ft 404 kts 233°
2026-05-04 15:20 51.34006 7.09852 35971 ft 404 kts 233°
2026-05-04 15:20 51.30673 7.02625 35894 ft 403 kts 232°
2026-05-04 15:21 51.28994 6.99041 35220 ft 403 kts 232°
2026-05-04 15:21 51.27309 6.95466 34498 ft 403 kts 232°
2026-05-04 15:21 51.23943 6.88345 32932 ft 402 kts 231°
2026-05-04 15:22 51.22253 6.84769 32063 ft 403 kts 231°
2026-05-04 15:22 51.20573 6.81212 31407 ft 400 kts 231°
2026-05-04 15:22 51.17249 6.74181 30146 ft 394 kts 231°
2026-05-04 15:23 51.15602 6.70703 29452 ft 392 kts 231°
2026-05-04 15:23 51.13989 6.67303 28767 ft 389 kts 231°
2026-05-04 15:23 51.12338 6.63829 28091 ft 387 kts 231°
2026-05-04 15:23 51.10718 6.60430 27456 ft 384 kts 231°
2026-05-04 15:24 51.07328 6.54039 26239 ft 377 kts 223°
2026-05-04 15:24 51.03603 6.48151 25089 ft 373 kts 224°
2026-05-04 15:25 51.01796 6.45293 24550 ft 371 kts 224°
2026-05-04 15:25 50.99975 6.42416 24018 ft 368 kts 224°
2026-05-04 15:25 50.98158 6.39554 23512 ft 367 kts 224°
2026-05-04 15:26 50.94562 6.33886 22358 ft 363 kts 224°
2026-05-04 15:26 50.92776 6.31075 21823 ft 361 kts 224°
2026-05-04 15:26 50.89226 6.25512 20767 ft 357 kts 223°
2026-05-04 15:27 50.87464 6.22752 20248 ft 355 kts 223°
2026-05-04 15:27 50.83962 6.17283 19247 ft 352 kts 223°
2026-05-04 15:28 50.80483 6.11864 18277 ft 350 kts 223°
2026-05-04 15:28 50.78750 6.09168 17750 ft 348 kts 223°
2026-05-04 15:28 50.75284 6.03787 16631 ft 349 kts 224°
2026-05-04 15:29 50.73618 6.01013 16141 ft 348 kts 230°
2026-05-04 15:30 50.72934 5.86762 14366 ft 346 kts 291°
2026-05-04 15:30 50.75558 5.76675 13908 ft 315 kts 292°
2026-05-04 15:31 50.77177 5.70396 13342 ft 306 kts 292°
2026-05-04 15:31 50.77975 5.67293 12984 ft 304 kts 292°
2026-05-04 15:32 50.80318 5.58100 11965 ft 297 kts 292°
2026-05-04 15:32 50.81595 5.53089 11379 ft 294 kts 292°
2026-05-04 15:33 50.83076 5.47097 10679 ft 291 kts 289°
2026-05-04 15:34 50.84848 5.38006 9621 ft 286 kts 287°
2026-05-04 15:34 50.85408 5.34996 9229 ft 284 kts 287°
2026-05-04 15:34 50.86534 5.29036 8434 ft 281 kts 287°
2026-05-04 15:35 50.87665 5.23143 7647 ft 278 kts 287°
2026-05-04 15:35 50.88227 5.20217 7253 ft 277 kts 287°
2026-05-04 15:35 50.88787 5.17305 6864 ft 276 kts 286°
2026-05-04 15:36 50.89897 5.11520 6237 ft 273 kts 287°
2026-05-04 15:36 50.90445 5.08650 5927 ft 272 kts 287°
2026-05-04 15:36 50.90990 5.05791 5624 ft 271 kts 287°
2026-05-04 15:37 50.91532 5.02941 5318 ft 270 kts 287°
2026-05-04 15:37 50.92071 5.00098 5014 ft 269 kts 287°
2026-05-04 15:37 50.92605 4.97281 4706 ft 264 kts 287°
2026-05-04 15:37 50.93129 4.94524 4404 ft 258 kts 287°
2026-05-04 15:38 50.93639 4.91834 4096 ft 252 kts 286°
2026-05-04 15:38 50.94137 4.89191 3815 ft 247 kts 286°
2026-05-04 15:38 50.94616 4.86639 3656 ft 236 kts 286°
2026-05-04 15:38 50.95073 4.84208 3528 ft 225 kts 286°
2026-05-04 15:39 50.95513 4.81861 3406 ft 221 kts 286°
2026-05-04 15:39 50.95839 4.79501 3320 ft 219 kts 271°
2026-05-04 15:39 50.95056 4.74863 3107 ft 218 kts 250°
2026-05-04 15:40 50.94544 4.72624 2855 ft 215 kts 250°
2026-05-04 15:40 50.94037 4.70404 2531 ft 213 kts 250°
2026-05-04 15:40 50.93542 4.68234 2252 ft 205 kts 250°
2026-05-04 15:40 50.93070 4.66171 2027 ft 193 kts 250°
2026-05-04 15:41 50.92628 4.64241 1739 ft 179 kts 249°
2026-05-04 15:41 50.92223 4.62470 1513 ft 164 kts 250°
2026-05-04 15:41 50.91892 4.60813 1283 ft 153 kts 261°
2026-05-04 15:41 50.91936 4.59180 1150 ft 148 kts 283°
2026-05-04 15:42 50.92232 4.57627 1043 ft 146 kts 287°
2026-05-04 15:42 50.92470 4.56061 899 ft 146 kts 275°
2026-05-04 15:42 50.92608 4.54476 834 ft 146 kts 278°
2026-05-04 15:42 50.92726 4.52886 604 ft 144 kts 262°
2026-05-04 15:43 50.92373 4.51430 457 ft 143 kts 234°
2026-05-04 15:43 50.91635 4.50411 275 ft 143 kts 204°
2026-05-04 15:43 50.90694 4.49959 124 ft 133 kts 198°
2026-05-04 15:43 50.89936 4.49648 136 ft 93 kts 194°
2026-05-04 15:44 50.89517 4.49478 162 ft 30 kts 194°
2026-05-04 15:44 50.89406 4.49363 168 ft 17 kts 238°
2026-05-04 15:44 50.89363 4.49186 167 ft 15 kts 256°
2026-05-04 15:44 50.89438 4.49137 163 ft 16 kts 14°
2026-05-04 15:45 50.89553 4.49183 158 ft 19 kts 15°
2026-05-04 15:45 50.89623 4.49151 154 ft 11 kts 333°
2026-05-04 15:45 50.89735 4.49181 147 ft 21 kts 13°
2026-05-04 15:45 50.89894 4.49245 138 ft 27 kts 15°
2026-05-04 15:46 50.90008 4.49346 131 ft 14 kts 61°
2026-05-04 15:46 50.90045 4.49454 131 ft 12 kts 61°
2026-05-04 15:46 50.90087 4.49592 131 ft 13 kts 65°
2026-05-04 15:46 50.90128 4.49716 131 ft 13 kts 62°
2026-05-04 15:47 50.90182 4.49878 130 ft 19 kts 63°
2026-05-04 15:47 50.90248 4.50079 128 ft 22 kts 62°
2026-05-04 15:47 50.90349 4.50260 126 ft 23 kts 23°
2026-05-04 15:47 50.90510 4.50330 123 ft 25 kts 14°
2026-05-04 15:48 50.90653 4.50386 121 ft 14 kts 12°
2026-05-04 15:48 50.90698 4.50289 121 ft 14 kts 284°
2026-05-04 15:48 50.90772 4.49936 121 ft 16 kts 323°
2026-05-04 15:49 50.90858 4.49866 123 ft 12 kts 304°
2026-05-04 15:49 50.90895 4.49742 123 ft 13 kts 292°
2026-05-04 15:49 50.90875 4.49597 124 ft 15 kts 245°
2026-05-04 15:49 50.90831 4.49441 123 ft 17 kts 245°
2026-05-04 15:50 50.90780 4.49264 122 ft 19 kts 246°
2026-05-04 15:50 50.90730 4.49110 121 ft 10 kts 226°
2026-05-04 15:50 50.90659 4.49126 121 ft 12 kts 156°
2026-05-04 15:50 50.90574 4.49187 124 ft 14 kts 154°
2026-05-04 15:51 50.90482 4.49253 123 ft 15 kts 155°
2026-05-04 15:51 50.90421 4.49295 123 ft 8 kts 164°
2026-05-04 15:51 50.90380 4.49247 124 ft 9 kts 241°
2026-05-04 15:51 50.90350 4.49143 124 ft 12 kts 245°
2026-05-04 15:52 50.90312 4.49011 124 ft 14 kts 246°
2026-05-04 15:52 50.90279 4.48895 124 ft 7 kts 246°
2026-05-04 15:52 50.90310 4.48852 123 ft 6 kts 344°
2026-05-04 15:52 50.90342 4.48830 121 ft 2 kts 335°
2026-05-04 15:53 50.90351 4.48824 121 ft 0 kts 335°